SCP
0 0 0 0 0 0 0 0 0 0 0 0 0 0 0 0 0 0 0 0 0 0 0 0 0 0 0 0 0 0 0 0 0 0 0 0 0 0
0 0 0 0 0 0 0 0 0 0 0 0 0 0 0 0 0 0 0 0 0 0 0 0 0 0 0 0 0 0 0 0 0 0 0 -0 -0 0
0 0 0 0 0 0 0 0 0 0 0 0 0 0 0 0 0 0 0 0 0 0 0 0 0 0 0 0 0 0 0 0 0 0 -0 0 0 0
0 0 0 0 0 0 0 0 0 0 0 0 0 0 0 0 0 0 0 0 0 0 0 0 0 0 0 0 0 0 0 0 0 0 0 0 0 0
0 0 0 0 0 0 0 0 0 0 0 0 0 0 0 0 0 0 0 0 0 0 0 0 0 0 0 0 0 0 0 0 0 0 0 0 0 0
0 0 0 0 0 0 0 0 0 0 0 0 0 0 0 0 0 0 0 0 0 0 0 0 0 0 0 0 0 0 0 0 0 0 0 0 0 0
0 0 0 0 0 0 0 0 0 0 0 0 0 0 0 0 0 0 0 0 0 0 0 0 0 0 0 0 0 0 0 0 0 0 0 0 0 0
0 0 0 0 0 0 0 0 0 0 0 0 0 0 0 0 0 0 0 0 0 0 -0 0 0 0 0 0 0 0 0 0 0 0 0 0 0 0
0 0 0 0 0 0 0 -0 -0 -0 0 0 0 0 0 -0 0 0 0 0 0 -0 0 0 0 0 0 0 0 0 0 0 0 0 0 0 0 0
0 0 0 0 0 0 0 0 0 0 0 -0 -0 -0 -0 -0 0 0 0 0 0 0 0 0 0 0 0 0 0 0 0 0 0 0 0 0 0 0
0 0 0 0 -0 -0 -0 -0 -0 -0 -0 -0 -0 -0 -0 -0 0 0 0 0 0 0 -0 -0 0 0 0 0 0 0 0 0 0 0 0 0 0 0
-0 -0 0 0 -0 -0 0 0 0 -0 -0 0 0 -0 -0 -0 0 0 -0 0 0 0 0 0 -0 0 0 0 0 0 0 0 0 0 0 0 0 0
-0 0 -0 0 0 -0 -0 -0 -0 -0 -0 0 0 0 0 0 0 0 0 0 0 0 0 0 0 0 -0 0 0 0 0 0 0 0 0 -0 -0 0
-0 -0 -0 -0 0 0 0 -0 -0 -0 0 0 0 0 0 0 0 0 0 0 0 0 0 -0 0 -0 0 0 0 0 0 0 0 0 0 0 0 -0
0 0 -0 0 0 0 -0 -0 0 0 0 0 0 0 0 0 0 0 0 0 0 0 0 0 0 0 0 0 0 0 0 0 0 0 0 0 0 0
0 0 0 0 0 0 0 0 0 0 0 0 0 0 0 0 0 0 0 0 0 0 0 0 0 0 0 0 0 0 0 0 0 0 0 0 0 0
0 0 0 0 0 0 0 0 0 0 0 0 0 0 0 0 0 0 0 0 0 0 0 0 0 0 0 0 0 0 0 0 0 0 0 0 0 0
0 0 0 0 0 0 0 0 0 0 0 0 0 0 0 0 0 0 0 0 0 0 0 0 0 0 0 0 0 0 0 0 0 0 0 0 0 0
0 0 0 0 0 0 0 0 0 0 0 0 0 0 0 0 0 0 0 0 0 0 0 0 0 0 0 0 0 0 0 0 0 0 0 0 0 0
0 0 0 0 0 0 0 0 0 0 0 0 0 0 0 0 0 0 0 0 0 0 0 0 0 0 0 0 0 0 0 0 0 0 0 0 0 0
0 0 0 0 0 0 0 0 0 0 0 0 0 0 0 0 0 0 0 0 0 0 0 0 0 0 0 0 0 0 0 0 0 0 0 0 0 0
0 0 0 0 0 0 0 0 0 0 0 0 0 0 0 0 0 0 0 0 0 0 0 0 0 0 0 0 0 0 0 0 0 0 0 0 0 0
0 0 0 0 0 0 0 0 0 0 0 0 0 0 0 0 0 0 0 0 0 0 0 0 0 0 0 0 0 0 0 0 0 0 0 0 0 0
Wind_Speed_500mb
33 33 33 41 32 24 27 29 32 26 30 24 19 22 19 16 22 28 28 29 28 30 34 35 36 37 42 43 46 50 55 58 62 63 65 64 62 63
17 24 25 27 23 18 11 17 20 22 27 25 20 27 21 16 19 22 21 24 25 28 31 35 37 40 44 47 47 50 56 61 65 61 57 61 63 59
31 25 24 21 19 21 22 16 16 20 23 22 24 24 19 14 13 15 16 20 23 29 33 37 39 41 43 44 46 55 61 67 63 58 61 65 68 60
24 27 26 25 19 18 21 15 22 21 21 28 24 22 13 8 7 8 13 17 24 27 32 35 37 39 39 41 53 59 66 65 71 69 75 71 58 57
20 21 23 23 17 18 18 18 16 16 16 18 16 14 7 4 1 4 10 18 21 25 31 36 36 36 37 45 56 61 66 71 79 88 86 68 68 66
18 17 19 17 13 10 14 14 13 14 15 15 15 13 11 5 2 1 5 14 17 24 31 32 30 33 38 49 53 56 64 64 72 81 80 82 89 93
13 14 10 11 14 12 13 13 13 10 11 14 14 12 10 8 8 6 4 6 15 18 22 28 28 38 41 49 52 51 56 61 63 68 66 65 70 76
15 14 14 16 16 14 12 11 12 13 13 14 15 16 15 14 13 12 9 3 3 14 23 30 30 37 42 51 48 45 51 57 68 67 66 67 68 63
17 14 18 22 21 17 15 17 18 19 19 19 19 20 20 18 16 17 14 11 13 16 19 29 28 40 43 41 44 47 54 59 55 64 70 71 73 78
15 14 15 16 19 20 21 19 18 19 22 23 23 21 21 21 19 16 16 18 17 12 11 25 28 35 39 41 43 48 48 48 53 58 59 62 66 67
19 17 18 18 18 19 19 21 25 24 25 24 23 22 22 20 18 16 14 16 16 16 10 16 28 29 37 36 31 27 32 33 34 42 48 52 53 54
14 14 14 16 19 25 25 22 23 26 26 25 25 22 21 20 20 19 15 8 5 10 11 12 12 8 24 28 25 21 27 34 39 42 43 42 45 49
13 17 21 23 25 26 28 25 21 22 25 25 24 22 20 20 19 16 15 15 15 13 11 11 13 13 13 22 21 19 23 30 33 35 38 35 37 41
20 23 24 26 29 27 25 25 26 26 25 25 24 23 21 19 16 14 14 15 15 13 14 14 14 11 12 18 20 21 25 25 25 26 26 29 30 36
24 25 23 25 28 28 27 28 27 27 27 26 26 24 21 19 16 14 13 12 11 11 13 14 15 13 8 7 17 22 22 18 13 14 15 18 23 27
28 30 30 31 30 30 31 31 32 31 31 30 28 26 24 22 19 15 12 11 10 9 9 11 11 12 9 10 9 14 13 10 10 9 9 10 15 17
33 33 34 34 34 34 34 34 35 37 36 33 32 31 30 27 24 21 19 16 13 10 9 9 9 10 9 9 8 9 13 17 15 8 7 6 7 13
37 37 38 39 39 39 39 40 41 40 40 40 39 38 37 34 32 30 28 25 22 19 16 13 12 11 10 8 8 8 11 13 15 14 7 5 1 4
47 47 46 45 44 45 46 46 45 44 45 45 45 44 44 44 41 39 37 35 32 29 26 23 21 18 14 13 12 14 13 14 15 15 13 11 9 9
54 53 52 52 52 52 52 51 51 52 53 52 52 52 51 50 49 47 44 41 39 37 36 34 31 27 23 21 17 16 19 18 18 17 16 15 13 12
61 58 55 54 55 56 57 58 57 59 59 59 59 57 57 57 56 52 50 47 46 44 42 39 37 34 31 29 25 23 21 22 19 16 15 14 12 10
65 62 60 58 56 59 62 64 66 67 67 66 63 61 60 61 61 57 56 54 51 49 48 45 41 41 39 36 31 27 26 24 21 18 16 15 13 9
67 65 61 60 59 57 62 67 69 71 70 69 68 67 65 66 63 62 62 60 57 56 54 51 48 47 45 41 37 34 32 29 25 21 18 16 15 15
Wind_Direction_500mb
237 242 254 249 259 272 263 269 274 257 229 221 244 270 275 291 307 322 337 339 349 360 358 358 357 359 4 359 354 352 348 343 342 338 348 346 340 343
239 244 244 251 260 242 263 260 249 234 230 215 244 263 271 291 312 329 340 347 5 2 360 5 7 11 8 2 354 352 353 351 351 355 348 348 348 346
234 224 225 225 227 221 193 209 191 193 213 214 237 263 271 306 325 335 354 4 10 8 14 13 16 13 8 1 359 8 6 8 6 1 360 359 2 355
227 225 224 215 214 191 211 221 201 217 253 260 240 241 251 282 304 348 6 15 19 16 23 21 20 14 10 7 21 22 24 25 26 24 19 15 16 15
205 214 216 219 229 233 223 218 220 253 258 256 241 233 243 242 321 337 24 25 24 27 29 26 17 16 18 31 38 35 36 41 39 31 29 40 44 31
204 187 197 212 220 218 210 211 235 249 250 235 213 194 196 154 125 115 44 41 35 35 32 30 26 31 34 48 46 40 37 39 40 36 50 63 58 43
178 189 207 216 229 216 209 225 239 231 198 180 173 171 153 139 108 124 158 73 44 46 44 46 43 48 47 52 47 44 38 47 53 47 58 68 60 61
209 210 202 195 211 212 207 205 199 178 173 166 158 148 131 129 131 109 110 122 89 60 54 53 47 55 58 56 48 50 47 62 67 56 54 57 58 65
189 190 201 201 206 207 192 179 172 164 156 145 144 140 137 124 125 107 93 97 107 98 64 64 59 65 65 66 56 66 65 68 73 71 67 70 71 72
220 209 212 214 203 188 174 175 167 158 149 144 139 137 125 112 113 124 106 86 86 106 98 75 71 75 77 77 78 84 75 66 66 76 79 79 79 76
223 220 196 183 186 180 169 172 161 157 147 139 134 127 114 110 106 104 110 92 91 90 109 117 89 90 91 87 88 75 71 73 70 69 68 76 80 80
211 201 193 178 183 181 161 166 165 156 153 147 140 132 128 116 100 89 88 113 127 82 89 93 189 129 88 97 91 72 67 76 82 80 75 72 73 75
218 206 188 184 187 186 169 165 167 165 159 153 148 147 134 122 113 109 106 100 96 96 97 89 92 109 142 123 107 92 83 88 89 84 78 70 69 69
209 205 198 197 197 191 180 177 177 178 174 169 169 163 154 143 138 133 119 103 96 97 102 99 99 105 129 132 120 111 102 92 92 89 83 79 68 71
209 211 212 215 213 202 195 193 192 191 190 189 186 180 176 169 167 157 140 128 120 110 104 103 99 95 110 133 142 141 124 111 90 91 91 90 82 72
218 219 221 219 217 212 209 206 204 203 202 203 201 198 197 196 193 188 181 172 159 143 130 120 114 112 115 125 147 153 161 139 127 120 104 101 90 69
223 223 225 224 224 223 219 215 214 213 213 214 213 214 214 213 211 210 211 209 203 194 184 168 153 143 140 132 129 129 140 152 156 173 153 150 85 63
231 234 232 230 230 229 226 224 224 224 223 223 222 222 223 224 224 223 223 224 222 219 213 203 191 180 166 153 166 177 169 170 167 182 207 205 213 23
239 237 236 236 235 235 234 232 231 231 231 231 229 228 228 229 228 228 228 229 229 228 224 221 217 214 223 225 212 204 211 201 196 198 218 238 269 302
251 249 246 244 242 242 241 241 240 239 238 237 236 235 234 234 234 233 233 234 233 232 231 231 231 230 231 230 228 218 212 222 217 221 230 246 265 284
254 254 255 254 254 253 251 249 247 246 246 244 243 243 242 241 240 237 235 234 235 233 235 236 235 233 230 229 233 231 221 217 214 224 233 234 246 266
259 261 261 259 255 255 254 253 251 249 248 249 249 248 247 246 245 242 239 239 238 238 236 236 233 231 230 229 230 228 224 225 223 225 227 233 247 252
263 265 264 264 263 257 256 255 253 252 251 251 251 250 249 250 249 246 242 238 236 237 237 236 233 231 229 227 226 226 224 226 229 227 233 235 239 248
Wind_Speed_850mb
33 33 33 41 32 24 27 29 32 26 30 24 19 22 19 16 22 28 28 29 28 30 34 35 36 37 42 43 46 50 55 58 62 63 65 64 62 63
17 24 25 27 23 18 11 17 20 22 27 25 20 27 21 16 19 22 21 24 25 28 31 35 37 40 44 47 47 50 56 61 65 61 57 61 63 59
31 25 24 21 19 21 22 16 16 20 23 22 24 24 19 14 13 15 16 20 23 29 33 37 39 41 43 44 46 55 61 67 63 58 61 65 68 60
24 27 26 25 19 18 21 15 22 21 21 28 24 22 13 8 7 8 13 17 24 27 32 35 37 39 39 41 53 59 66 65 71 69 75 71 58 57
20 21 23 23 17 18 18 18 16 16 16 18 16 14 7 4 1 4 10 18 21 25 31 36 36 36 37 45 56 61 66 71 79 88 86 68 68 66
18 17 19 17 13 10 14 14 13 14 15 15 15 13 11 5 2 1 5 14 17 24 31 32 30 33 38 49 53 56 64 64 72 81 80 82 89 93
13 14 10 11 14 12 13 13 13 10 11 14 14 12 10 8 8 6 4 6 15 18 22 28 28 38 41 49 52 51 56 61 63 68 66 65 70 76
15 14 14 16 16 14 12 11 12 13 13 14 15 16 15 14 13 12 9 3 3 14 23 30 30 37 42 51 48 45 51 57 68 67 66 67 68 63
17 14 18 22 21 17 15 17 18 19 19 19 19 20 20 18 16 17 14 11 13 16 19 29 28 40 43 41 44 47 54 59 55 64 70 71 73 78
15 14 15 16 19 20 21 19 18 19 22 23 23 21 21 21 19 16 16 18 17 12 11 25 28 35 39 41 43 48 48 48 53 58 59 62 66 67
19 17 18 18 18 19 19 21 25 24 25 24 23 22 22 20 18 16 14 16 16 16 10 16 28 29 37 36 31 27 32 33 34 42 48 52 53 54
14 14 14 16 19 25 25 22 23 26 26 25 25 22 21 20 20 19 15 8 5 10 11 12 12 8 24 28 25 21 27 34 39 42 43 42 45 49
13 17 21 23 25 26 28 25 21 22 25 25 24 22 20 20 19 16 15 15 15 13 11 11 13 13 13 22 21 19 23 30 33 35 38 35 37 41
20 23 24 26 29 27 25 25 26 26 25 25 24 23 21 19 16 14 14 15 15 13 14 14 14 11 12 18 20 21 25 25 25 26 26 29 30 36
24 25 23 25 28 28 27 28 27 27 27 26 26 24 21 19 16 14 13 12 11 11 13 14 15 13 8 7 17 22 22 18 13 14 15 18 23 27
28 30 30 31 30 30 31 31 32 31 31 30 28 26 24 22 19 15 12 11 10 9 9 11 11 12 9 10 9 14 13 10 10 9 9 10 15 17
33 33 34 34 34 34 34 34 35 37 36 33 32 31 30 27 24 21 19 16 13 10 9 9 9 10 9 9 8 9 13 17 15 8 7 6 7 13
37 37 38 39 39 39 39 40 41 40 40 40 39 38 37 34 32 30 28 25 22 19 16 13 12 11 10 8 8 8 11 13 15 14 7 5 1 4
47 47 46 45 44 45 46 46 45 44 45 45 45 44 44 44 41 39 37 35 32 29 26 23 21 18 14 13 12 14 13 14 15 15 13 11 9 9
54 53 52 52 52 52 52 51 51 52 53 52 52 52 51 50 49 47 44 41 39 37 36 34 31 27 23 21 17 16 19 18 18 17 16 15 13 12
61 58 55 54 55 56 57 58 57 59 59 59 59 57 57 57 56 52 50 47 46 44 42 39 37 34 31 29 25 23 21 22 19 16 15 14 12 10
65 62 60 58 56 59 62 64 66 67 67 66 63 61 60 61 61 57 56 54 51 49 48 45 41 41 39 36 31 27 26 24 21 18 16 15 13 9
67 65 61 60 59 57 62 67 69 71 70 69 68 67 65 66 63 62 62 60 57 56 54 51 48 47 45 41 37 34 32 29 25 21 18 16 15 15
Wind_Direction_850mb
237 242 254 249 259 272 263 269 274 257 229 221 244 270 275 291 307 322 337 339 349 360 358 358 357 359 4 359 354 352 348 343 342 338 348 346 340 343
239 244 244 251 260 242 263 260 249 234 230 215 244 263 271 291 312 329 340 347 5 2 360 5 7 11 8 2 354 352 353 351 351 355 348 348 348 346
234 224 225 225 227 221 193 209 191 193 213 214 237 263 271 306 325 335 354 4 10 8 14 13 16 13 8 1 359 8 6 8 6 1 360 359 2 355
227 225 224 215 214 191 211 221 201 217 253 260 240 241 251 282 304 348 6 15 19 16 23 21 20 14 10 7 21 22 24 25 26 24 19 15 16 15
205 214 216 219 229 233 223 218 220 253 258 256 241 233 243 242 321 337 24 25 24 27 29 26 17 16 18 31 38 35 36 41 39 31 29 40 44 31
204 187 197 212 220 218 210 211 235 249 250 235 213 194 196 154 125 115 44 41 35 35 32 30 26 31 34 48 46 40 37 39 40 36 50 63 58 43
178 189 207 216 229 216 209 225 239 231 198 180 173 171 153 139 108 124 158 73 44 46 44 46 43 48 47 52 47 44 38 47 53 47 58 68 60 61
209 210 202 195 211 212 207 205 199 178 173 166 158 148 131 129 131 109 110 122 89 60 54 53 47 55 58 56 48 50 47 62 67 56 54 57 58 65
189 190 201 201 206 207 192 179 172 164 156 145 144 140 137 124 125 107 93 97 107 98 64 64 59 65 65 66 56 66 65 68 73 71 67 70 71 72
220 209 212 214 203 188 174 175 167 158 149 144 139 137 125 112 113 124 106 86 86 106 98 75 71 75 77 77 78 84 75 66 66 76 79 79 79 76
223 220 196 183 186 180 169 172 161 157 147 139 134 127 114 110 106 104 110 92 91 90 109 117 89 90 91 87 88 75 71 73 70 69 68 76 80 80
211 201 193 178 183 181 161 166 165 156 153 147 140 132 128 116 100 89 88 113 127 82 89 93 189 129 88 97 91 72 67 76 82 80 75 72 73 75
218 206 188 184 187 186 169 165 167 165 159 153 148 147 134 122 113 109 106 100 96 96 97 89 92 109 142 123 107 92 83 88 89 84 78 70 69 69
209 205 198 197 197 191 180 177 177 178 174 169 169 163 154 143 138 133 119 103 96 97 102 99 99 105 129 132 120 111 102 92 92 89 83 79 68 71
209 211 212 215 213 202 195 193 192 191 190 189 186 180 176 169 167 157 140 128 120 110 104 103 99 95 110 133 142 141 124 111 90 91 91 90 82 72
218 219 221 219 217 212 209 206 204 203 202 203 201 198 197 196 193 188 181 172 159 143 130 120 114 112 115 125 147 153 161 139 127 120 104 101 90 69
223 223 225 224 224 223 219 215 214 213 213 214 213 214 214 213 211 210 211 209 203 194 184 168 153 143 140 132 129 129 140 152 156 173 153 150 85 63
231 234 232 230 230 229 226 224 224 224 223 223 222 222 223 224 224 223 223 224 222 219 213 203 191 180 166 153 166 177 169 170 167 182 207 205 213 23
239 237 236 236 235 235 234 232 231 231 231 231 229 228 228 229 228 228 228 229 229 228 224 221 217 214 223 225 212 204 211 201 196 198 218 238 269 302
251 249 246 244 242 242 241 241 240 239 238 237 236 235 234 234 234 233 233 234 233 232 231 231 231 230 231 230 228 218 212 222 217 221 230 246 265 284
254 254 255 254 254 253 251 249 247 246 246 244 243 243 242 241 240 237 235 234 235 233 235 236 235 233 230 229 233 231 221 217 214 224 233 234 246 266
259 261 261 259 255 255 254 253 251 249 248 249 249 248 247 246 245 242 239 239 238 238 236 236 233 231 230 229 230 228 224 225 223 225 227 233 247 252
263 265 264 264 263 257 256 255 253 252 251 251 251 250 249 250 249 246 242 238 236 237 237 236 233 231 229 227 226 226 224 226 229 227 233 235 239 248